RH
28 33 34 37 38 39 51 50 69 72 58 40 39 55 58 64 66 68 69 74 78 80 83 83 77 68 64 54 55 59 51 50 45 42 37 36 30 31 32 29 21 24 26 19
45 43 45 48 50 49 44 30 30 32 34 36 57 70 74 72 67 66 70 76 77 76 74 68 67 66 59 61 56 51 49 49 47 44 42 38 34 27 29 28 25 17 17 21
54 54 55 58 50 50 38 41 39 35 33 57 70 73 61 73 77 79 80 81 78 75 72 69 64 60 61 55 50 45 44 46 51 50 46 44 38 32 28 25 24 21 16 16
66 64 72 43 39 36 26 43 56 66 66 58 58 76 80 78 79 85 85 82 79 70 66 66 60 60 51 44 43 41 45 49 55 58 55 50 48 42 36 29 22 20 19 18
75 71 55 42 41 49 72 77 75 60 55 70 75 67 64 71 74 75 75 72 64 62 60 54 50 44 40 40 41 43 43 46 51 55 56 52 51 50 49 43 36 28 24 23
78 86 70 42 60 63 73 73 58 54 72 71 62 67 66 64 58 53 51 48 49 48 48 47 44 39 37 38 41 41 44 44 51 50 48 49 51 48 47 48 50 44 41 36
87 82 59 47 73 83 81 65 62 73 77 72 66 64 53 51 46 42 41 42 46 46 45 47 41 40 43 44 35 34 43 42 48 50 48 44 44 49 51 50 50 49 45 41
81 81 70 51 55 58 70 70 72 75 75 74 71 55 46 40 41 40 40 41 45 44 47 47 47 49 47 45 44 42 44 49 49 46 47 43 42 46 50 57 47 46 47 46
68 66 76 71 77 80 70 65 75 77 74 68 55 46 36 38 39 39 39 41 42 41 48 51 51 50 50 45 43 40 42 46 50 47 47 46 48 50 51 50 51 52 51 50
84 74 84 88 83 74 67 75 76 78 68 64 52 41 33 36 38 38 38 39 38 40 47 50 49 49 50 44 45 44 47 51 51 52 53 53 49 45 42 43 48 47 44 39
88 72 69 73 83 77 75 78 77 77 73 63 49 39 33 36 37 36 37 37 38 43 46 48 46 45 48 45 46 48 49 53 55 48 52 49 48 46 44 42 41 40 39 40
88 78 77 80 80 82 81 82 82 81 75 63 45 33 34 36 38 37 36 37 40 43 44 43 45 46 46 43 43 46 52 56 57 55 53 54 55 55 54 51 45 43 42 40
76 78 80 77 78 76 72 70 66 63 55 40 34 33 36 38 39 38 38 40 41 43 43 43 46 45 44 42 45 50 55 59 52 52 52 58 55 53 56 55 53 49 46 45
80 80 79 72 69 69 67 62 53 45 36 32 34 37 38 39 39 40 41 43 43 42 42 42 41 41 42 50 51 52 48 49 50 48 46 45 46 46 43 46 49 50 49 46
82 81 81 77 73 71 72 62 44 33 31 33 36 38 39 39 41 44 44 45 44 45 45 41 44 49 49 50 48 46 43 43 44 43 40 39 37 38 43 46 48 49 56 57
84 84 86 81 79 77 73 60 33 31 32 35 38 40 41 42 45 46 46 46 47 48 44 46 53 50 44 40 39 41 45 48 45 45 41 38 43 45 48 51 55 60 62 70
87 88 87 82 77 72 63 42 31 33 35 37 39 43 47 45 46 48 49 51 51 49 54 55 50 48 46 42 39 46 48 48 44 42 44 46 49 51 54 60 66 70 80 90
89 85 80 78 73 59 47 35 34 34 37 41 46 47 46 48 49 50 51 54 50 53 56 52 54 55 49 45 44 51 50 48 45 45 52 56 56 61 67 71 79 90 96 91
81 77 74 70 58 48 38 34 36 39 41 43 44 46 49 53 53 53 53 52 51 52 52 55 57 54 48 45 44 46 51 53 56 58 61 63 68 70 74 81 92 90 88 91
76 67 59 52 42 36 34 35 39 41 43 45 47 53 53 52 54 55 53 52 53 54 53 54 58 57 53 53 51 53 59 57 59 65 68 71 74 81 86 89 87 93 96 94
54 47 38 35 36 37 39 40 41 43 43 45 52 54 50 49 53 56 55 55 55 54 58 61 60 61 61 56 52 59 58 61 65 70 76 84 91 93 93 95 96 96 90 84
41 39 38 38 38 39 39 40 44 47 50 52 53 54 53 54 57 57 57 61 65 66 66 66 67 64 61 57 60 64 68 74 81 88 92 95 96 98 98 99 96 87 78 66
41 39 39 41 41 42 46 52 54 53 54 54 54 56 58 59 61 63 66 69 70 71 70 68 66 65 63 65 71 75 81 89 93 95 97 98 98 98 96 87 73 56 40 30
50 49 49 52 55 59 59 60 59 57 57 58 60 61 63 67 71 75 77 78 75 70 73 74 73 71 72 78 80 86 92 96 97 97 98 97 95 84 65 44 30 25 22 23
59 60 59 58 60 62 62 60 60 60 62 65 66 67 71 76 77 78 78 77 75 78 79 79 76 76 81 82 86 94 96 97 97 96 94 83 60 40 29 25 22 22 24 26
68 67 66 68 69 66 64 65 68 69 70 71 72 75 77 79 79 83 83 81 82 82 79 77 80 81 83 88 95 98 97 96 94 82 59 41 31 27 23 22 23 24 26 28
77 77 75 73 70 71 71 72 73 74 74 75 79 80 80 80 81 83 81 80 79 77 77 80 82 86 95 98 97 96 95 84 61 44 35 29 26 23 23 24 25 27 30 33